Flag for Puerto Rico Weather past 2 weeks in Ponce, Puerto Rico

Now
86 °F

Partly sunny.


Feels Like: 91 °F
Forecast: 68 / 86 °F
Wind: 12 mph from Southeast

Location: Ponce / Mercedita

Current Time: Apr 1, 2015 at 1:25:44 PM

Latest Report: Apr 1, 2015 at 12:50 PM


Visibility: 10 mi

Pressure: 30.01 "Hg

Humidity: 59%

Dew point: 70 °F

Location of PonceLocation

Historic Weather in Ponce — Graph

°F

Ponce temperature yesterday

Maximum temperature yesterday: 86 °F (at 10:50 AM)
Minimum temperature yesterday: 68 °F (at 5:50 AM)
Average temperature yesterday: 76 °F

Past Weeks' High & Low Weather Summary

 TemperatureHumidityPressure
High88 °F (Mar 17, 2:50 PM)100% (Mar 22, 5:50 PM)30.11 "Hg (Mar 22, 5:50 PM)
Low66 °F (Mar 23, 6:50 AM)48% (Mar 18, 9:50 AM)29.91 "Hg (Mar 17, 5:50 PM)
Average77 °F75%30.00 "Hg
* Reported Mar 17 2:50 PM — Apr 1 11:50 AM, Ponce, Weather by CustomWeather, © 2015

Note: Actual official high and low records may vary slightly from our data, if they occured in-between our weather recording intervals... More about our weather records

Advertising

Ponce weather history for previous 24 hours

 ConditionsComfort  
Time TempWeatherWind HumidityBarometerVisibility
11:50 AM
Wed, Apr 1
88 °FPartly sunny.12 mph55%30.02 "Hg10 mi
10:50 AM86 °FScattered clouds.12 mph62%30.03 "Hg10 mi
9:50 AM88 °FPartly sunny.12 mph49%30.03 "Hg10 mi
8:50 AM82 °FPartly sunny.12 mph58%30.03 "Hg10 mi
7:50 AM79 °FScattered clouds.7 mph61%30.01 "Hg10 mi
6:50 AM70 °FPassing clouds.6 mph78%30.00 "Hg10 mi
5:50 AM68 °FPassing clouds.6 mph78%29.97 "Hg8 mi
4:50 AM68 °FClear.6 mph78%29.97 "Hg8 mi
3:50 AM66 °FPassing clouds.6 mph83%29.97 "Hg8 mi
2:50 AM70 °FPassing clouds.No wind73%29.99 "Hg8 mi
1:50 AM70 °FPassing clouds.6 mph78%30.00 "Hg8 mi
12:50 AM72 °FPassing clouds.6 mph73%30.01 "Hg8 mi
11:50 PM
Tue, Mar 31
73 °FPassing clouds.No wind74%30.01 "Hg8 mi
10:50 PM73 °FPassing clouds.No wind74%30.00 "Hg8 mi
9:50 PM75 °FPassing clouds.No wind74%30.00 "Hg10 mi
8:50 PM75 °FPassing clouds.No wind74%29.99 "Hg10 mi
6:50 PM81 °FScattered clouds.12 mph62%29.95 "Hg10 mi
5:50 PM82 °FScattered clouds.12 mph66%29.95 "Hg10 mi
4:50 PM84 °FScattered clouds.12 mph62%29.93 "Hg10 mi
3:50 PM84 °FScattered clouds.12 mph66%29.94 "Hg10 mi
Weather by CustomWeather, © 2015

See weather overviewHow to use our weather pages